This demonstration page uses our WeatherBlox Daily Observations layout. Learn more.

Left ArrowRight Arrow

Hourly Observations for December 24, 2020

Temp ( °F °C ) Dew Point ( °F °C ) Humidity (%) Winds ( mph kmh ) Pressure ( in mb ) Visibility ( mi km ) Precip ( " mm )
12:15 am 00:15 Mostly Cloudy 20 -6.8 9 -12.6 64 64 WNW 10 17 30.26 1025 10 16 N/A
12:35 am 00:35 Partly Cloudy 19 -7.5 9 -12.7 67 67 WNW 9 15 30.26 1025 10 16 N/A
12:55 am 00:55 Partly Cloudy 19 -7.2 9 -13 64 64 WNW 10 17 30.25 1024 10 16 N/A
1:15 am 01:15 Clear 16 -8.9 8 -13.5 70 70 W 9 15 30.26 1025 10 16 N/A
1:35 am 01:35 Clear 15 -9.5 8 -13.5 73 73 W 9 15 30.26 1025 10 16 N/A
1:55 am 01:55 Clear 15 -9.7 8 -13.5 74 74 W 10 17 30.26 1025 10 16 N/A
2:15 am 02:15 Clear 15 -9.5 8 -13.5 73 73 W 10 17 30.27 1025 10 16 N/A
2:35 am 02:35 Clear 14 -9.9 7 -13.8 73 73 W 8 13 30.27 1025 10 16 N/A
2:55 am 02:55 Clear 15 -9.5 8 -13.5 73 73 W 10 17 30.27 1025 10 16 N/A
3:15 am 03:15 Clear 16 -9.1 8 -13.5 71 71 W 10 17 30.26 1025 10 16 N/A
3:35 am 03:35 Clear 16 -9 8 -13.6 70 70 W 9 15 30.25 1025 10 16 N/A
3:55 am 03:55 Clear 15 -9.5 8 -13.6 72 72 W 9 15 30.25 1024 10 16 N/A
4:15 am 04:15 Clear 16 -9.1 8 -13.3 72 72 W 12 19 30.25 1024 10 16 N/A
4:35 am 04:35 Partly Cloudy 17 -8.4 9 -12.8 71 71 W 12 19 30.23 1024 10 16 N/A
4:55 am 04:55 Mostly Cloudy 17 -8.1 9 -12.6 70 70 W 12 19 30.21 1023 10 16 N/A
5:15 am 05:15 Mostly Cloudy 18 -7.8 10 -12.5 69 69 W 8 13 30.21 1023 10 16 N/A
5:35 am 05:35 Mostly Cloudy 18 -8 10 -12.3 72 72 W 9 15 30.21 1023 10 16 N/A
5:55 am 05:55 Partly Cloudy 18 -8 10 -12.5 70 70 W 10 17 30.21 1023 10 16 N/A
6:15 am 06:15 Partly Cloudy 17 -8.1 10 -12.4 72 72 W 12 19 30.21 1023 10 16 N/A
6:35 am 06:35 Clear 17 -8.5 10 -12.5 73 73 W 10 17 30.22 1023 10 16 N/A
6:55 am 06:55 Clear 17 -8.3 10 -12.3 73 73 W 9 15 30.22 1023 10 16 N/A
7:15 am 07:15 Clear 17 -8.1 10 -12.2 73 73 W 8 13 30.21 1023 10 16 N/A
7:35 am 07:35 Clear 17 -8.2 10 -12 74 74 W 7 11 30.22 1023 10 16 N/A
7:55 am 07:55 Partly Cloudy 17 -8.1 11 -11.9 74 74 W 8 13 30.23 1024 10 16 N/A
8:15 am 08:15 Mostly Cloudy 18 -7.7 11 -11.4 75 75 W 6 9 30.22 1023 10 16 N/A
8:35 am 08:35 Cloudy 20 -6.9 13 -10.5 76 76 WNW 6 9 30.22 1023 10 16 N/A
8:55 am 08:55 Cloudy 21 -6 14 -10 74 74 NNW 5 7 30.22 1023 10 16 N/A
9:15 am 09:15 Cloudy 23 -5.1 16 -8.9 75 75 NW 8 13 30.21 1023 10 16 N/A
9:35 am 09:35 Cloudy 25 -3.9 17 -8.5 71 71 NW 10 17 30.21 1023 10 16 N/A
9:55 am 09:55 Cloudy 26 -3.1 17 -8.1 69 69 NNW 12 19 30.21 1023 10 16 N/A
10:15 am 10:15 Cloudy 27 -2.7 18 -7.9 68 68 NNW 9 15 30.21 1023 10 16 N/A
10:35 am 10:35 Cloudy 28 -2.3 19 -7.5 68 68 NNW 9 15 30.22 1023 10 16 N/A
10:55 am 10:55 Cloudy 28 -2 18 -7.6 66 66 NNW 12 19 30.21 1023 10 16 N/A
11:15 am 11:15 Cloudy 29 -1.7 19 -7.5 65 65 NNW 9 15 30.21 1023 10 16 N/A
11:35 am 11:35 Cloudy 29 -1.6 19 -7.3 65 65 N 10 17 30.21 1023 10 16 N/A
11:55 am 11:55 Cloudy 30 -1.2 19 -7.3 64 64 N 10 17 30.22 1023 10 16 N/A
12:15 pm 12:15 Cloudy 30 -1.2 19 -7.5 63 63 NNW 9 15 30.22 1023 10 16 N/A
12:35 pm 12:35 Cloudy 30 -1 19 -7.1 64 64 NNW 9 15 30.20 1023 10 16 N/A
12:55 pm 12:55 Cloudy 31 -0.8 20 -6.7 65 65 NNW 9 15 30.20 1023 10 16 N/A
1:15 pm 13:15 Cloudy 31 -0.7 19 -7 63 63 NNW 7 11 30.19 1022 10 16 N/A
1:35 pm 13:35 Cloudy 31 -0.5 20 -6.8 63 63 NNW 5 7 30.19 1022 10 16 N/A
1:55 pm 13:55 Cloudy 32 undefined 21 -6.2 63 63 NNW 5 7 30.19 1022 10 16 N/A
2:15 pm 14:15 Cloudy 32 0.2 22 -5.5 66 66 NNW 6 9 30.18 1022 10 16 N/A
2:35 pm 14:35 Mostly Cloudy 33 0.6 22 -5.4 65 65 NNW 12 19 30.17 1022 10 16 N/A
2:55 pm 14:55 Partly Cloudy 33 0.7 22 -5.5 64 64 NW 14 22 30.17 1022 10 16 N/A
3:15 pm 15:15 Partly Cloudy 33 0.5 22 -5.5 64 64 NNW 9 15 30.18 1022 10 16 N/A
3:35 pm 15:35 Mostly Cloudy 33 0.7 23 -5.1 66 66 NW 13 20 30.18 1022 10 16 N/A
3:55 pm 15:55 Cloudy 33 0.8 23 -5 66 66 NW 15 24 30.19 1022 10 16 N/A
4:15 pm 16:15 Cloudy 33 0.7 22 -5.3 65 65 NNW 12 19 30.18 1022 10 16 N/A
4:35 pm 16:35 Mostly Cloudy 33 0.3 23 -5 68 68 NW 10 17 30.17 1022 10 16 N/A
4:55 pm 16:55 Mostly Cloudy 32 0.2 24 -4.5 71 71 NW 5 7 30.18 1022 10 16 N/A
5:15 pm 17:15 Cloudy 33 0.3 25 -4 73 73 N N/A 30.18 1022 10 16 N/A
5:35 pm 17:35 Cloudy 32 0.2 26 -3.5 76 76 NNW 3 6 30.18 1022 10 16 N/A
5:55 pm 17:55 Cloudy 32 0.2 25 -3.7 75 75 NNW 3 6 30.18 1022 10 16 N/A
6:15 pm 18:15 Cloudy 32 undefined 25 -3.7 76 76 NNW 5 7 30.18 1022 10 16 N/A
6:35 pm 18:35 Cloudy 32 undefined 26 -3.6 77 77 N 5 7 30.19 1022 10 16 N/A
6:55 pm 18:55 Cloudy 32 -0.1 26 -3.5 78 78 N N/A 30.20 1023 10 16 N/A
7:15 pm 19:15 Cloudy 31 -0.8 26 -3.2 84 84 N N/A 30.21 1023 10 16 N/A
7:35 pm 19:35 Cloudy 30 -1.2 25 -3.8 83 83 N N/A 30.22 1023 10 16 N/A
7:55 pm 19:55 Cloudy 30 -1 24 -4.5 77 77 N N/A 30.21 1023 10 16 N/A
8:15 pm 20:15 Cloudy 30 -0.9 24 -4.4 77 77 N N/A 30.22 1023 10 16 N/A
8:35 pm 20:35 Cloudy 31 -0.7 25 -3.7 80 80 SW 5 7 30.20 1023 10 16 N/A
8:55 pm 20:55 Cloudy 31 -0.5 26 -3.2 82 82 N N/A 30.22 1023 10 16 N/A
9:15 pm 21:15 Cloudy 31 -0.5 27 -2.8 85 85 N N/A 30.23 1024 10 16 N/A
9:35 pm 21:35 Cloudy 31 -0.5 27 -2.6 86 86 N N/A 30.22 1023 10 16 N/A
9:55 pm 21:55 Cloudy 31 -0.8 27 -2.7 87 87 WSW 3 6 30.23 1024 10 16 N/A
10:15 pm 22:15 Cloudy 31 -0.8 27 -2.7 87 87 W 3 6 30.23 1024 10 16 N/A
10:35 pm 22:35 Cloudy 31 -0.7 27 -2.7 87 87 WSW 5 7 30.24 1024 10 16 N/A
10:55 pm 22:55 Cloudy 31 -0.5 27 -2.8 85 85 N N/A 30.24 1024 10 16 N/A
11:15 pm 23:15 Mostly Cloudy 30 -0.9 26 -3.2 85 85 N N/A 30.23 1024 10 16 N/A
11:35 pm 23:35 Partly Cloudy 30 -1.2 26 -3.2 86 86 SSW 3 6 30.24 1024 10 16 N/A
11:55 pm 23:55 Clear 27 -2.6 24 -4.6 86 86 N N/A 30.25 1024 10 16 N/A

Powered by AerisWeather